Current Weather Conditions: station ENQR

sailwx.info

See reports from other nearby stations

no recent reports received from weather station ID ENQR

Tides Pressure Air temp Water temp Dewpoint Dewpoint depression Visibility Wind speed Wind direction Waves Ship positions
date/time (UTC)wind fromknots sea level pressurealtimeterstation pressurevisibilityair tempwater tempwave heightnotes
2018-Feb-18 07:50 250 15 5.4 5.0
2018-Feb-18 07:20 230 8 2.7 4.0
2018-Feb-18 06:50 240 4 5.4 4.0
2018-Feb-18 06:20 260 7 5.4 5.0
2018-Feb-18 05:50 230 13 5.4 5.0
2018-Feb-18 05:20 260 8 5.4 4.0
2018-Feb-18 04:50 270 18 5.4 4.0
2018-Feb-18 04:20 240 14 5.4 5.0
2018-Feb-18 03:50 240 12 5.4 5.0
2018-Feb-18 03:20 240 11 5.4 5.0
2018-Feb-18 02:50 250 13 5.4 5.0
2018-Feb-18 02:20 220 18 5.4 5.0
2018-Feb-18 01:50 210 13 5.4 5.0
2018-Feb-18 01:20 220 25 5.4 5.0
2018-Feb-18 00:50 230 19 5.4 6.0
2018-Feb-18 00:20 220 19 5.4 5.0
2018-Feb-17 23:50 200 20 5.4 6.0
2018-Feb-17 23:20 210 19 5.4 6.0
2018-Feb-17 22:50 220 20 5.4 6.0
2018-Feb-17 22:20 220 21 5.4 6.0
2018-Feb-17 21:50 200 13 5.4 5.0
2018-Feb-17 21:20 230 25 5.4 5.0
2018-Feb-17 20:50 200 17 5.4 5.0
2018-Feb-17 20:20 220 20 5.4 5.0
2018-Feb-17 19:50 210 20 5.4 5.0
2018-Feb-17 19:20 220 22 5.4 6.0
2018-Feb-17 18:50 200 21 5.4 6.0
2018-Feb-17 18:20 180 17 5.4 6.0
2018-Feb-17 17:50 200 20 5.4 6.0
2018-Feb-17 17:20 180 21 5.4 6.0
2018-Feb-17 16:50 180 24 5.4 6.0
2018-Feb-17 16:20 180 22 5.4 6.0
2018-Feb-17 15:50 180 21 5.4 6.0
2018-Feb-17 15:20 190 20 5.4 6.0
2018-Feb-17 14:50 190 18 5.4 5.0
2018-Feb-17 14:20 190 20 5.4 5.0
2018-Feb-17 13:50 190 25 5.4 6.0
2018-Feb-17 13:20 180 28 5.4 6.0
2018-Feb-17 12:50 190 29 5.4 6.0
2018-Feb-17 12:20 180 28 5.4 6.0
2018-Feb-17 11:50 180 31 5.4 6.0
2018-Feb-17 11:20 160 34 5.4 6.0
2018-Feb-17 10:50 170 29 5.4 6.0
2018-Feb-17 10:20 170 34 5.4 6.0
2018-Feb-17 09:50 170 33 5.4 6.0
2018-Feb-17 09:20 160 35 5.4 6.0
2018-Feb-17 08:50 160 34 4.3 6.0
2018-Feb-17 08:20 160 33 5.4 6.0
2018-Feb-17 07:50 170 38 4.9 5.0
2018-Feb-17 07:20 150 34 5.4 7.0
2018-Feb-17 06:50 150 33 5.4 7.0
2018-Feb-17 06:20 150 32 5.4 7.0
2018-Feb-17 05:50 160 32 5.4 7.0
2018-Feb-17 05:20 150 28 5.4 6.0
2018-Feb-17 04:50 160 29 5.4 6.0
2018-Feb-17 04:20 160 27 5.4 6.0
2018-Feb-17 03:50 160 28 5.4 6.0
2018-Feb-17 03:20 160 25 5.4 6.0
2018-Feb-17 02:50 160 25 5.4 6.0
2018-Feb-17 02:20 170 24 5.4 6.0
2018-Feb-17 01:50 180 21 5.4 6.0
2018-Feb-17 01:20 180 20 5.4 6.0
2018-Feb-17 00:50 190 20 5.4 6.0
2018-Feb-17 00:20 180 19 5.4 6.0
2018-Feb-16 23:50 190 19 5.4 6.0
2018-Feb-16 23:20 200 20 5.4 6.0
2018-Feb-16 22:50 200 19 5.4 6.0
2018-Feb-16 22:20 220 19 5.4 6.0
2018-Feb-16 21:50 220 19 5.4 6.0
2018-Feb-16 21:20 220 20 5.4 6.0
2018-Feb-16 20:50 200 13 5.4 5.0
2018-Feb-16 20:20 230 19 5.4 6.0
2018-Feb-16 19:50 220 15 5.4 6.0
2018-Feb-16 19:20 230 25 5.4 5.0
2018-Feb-16 18:50 220 20 5.4 6.0
2018-Feb-16 18:20 220 24 5.4 6.0
2018-Feb-16 17:50 220 21 5.4 6.0
2018-Feb-16 17:20 220 14 5.4 7.0
2018-Feb-16 16:50 230 19 5.4 6.0
2018-Feb-16 16:20 230 17 5.4 6.0
2018-Feb-16 15:50 220 20 5.4 6.0
2018-Feb-16 15:20 250 13 5.4 6.0
2018-Feb-16 14:50 270 17 5.4 6.0
2018-Feb-16 14:20 240 21 5.4 7.0
2018-Feb-16 13:50 240 24 5.4 7.0
2018-Feb-16 13:20 230 20 5.4 7.0
2018-Feb-16 12:50 240 20 5.4 7.0
2018-Feb-16 12:20 240 20 5.4 7.0
2018-Feb-16 11:50 240 22 5.4 7.0
2018-Feb-16 11:20 240 24 5.4 7.0
2018-Feb-16 10:50 240 24 5.4 7.0
2018-Feb-16 10:20 240 22 5.4 7.0
2018-Feb-16 09:50 240 21 5.4 7.0
2018-Feb-16 09:20 240 21 5.4 7.0